Satellite: SO-50
Catalog number: 27607
Epoch time:      10315.40973516
Element set:     315
Inclination:      064.5591 deg
RA of node:       269.3216 deg
Eccentricity:    0.0047074
Arg of perigee:   017.4188 deg
Mean anomaly:     342.8542 deg
Mean motion:   14.71601564 rev/day
Decay rate:       2.34e-06 rev/day^2
Epoch rev:           42404
Checksum:              287

Satellite: CO-55
Catalog number: 27844
Epoch time:      10315.99015735
Element set:     976
Inclination:      098.7092 deg
RA of node:       322.8511 deg
Eccentricity:    0.0010436
Arg of perigee:   102.2505 deg
Mean anomaly:     257.9846 deg
Mean motion:   14.20744570 rev/day
Decay rate:        8.0e-07 rev/day^2
Epoch rev:           38207
Checksum:              306

Satellite: CO-57
Catalog number: 27848
Epoch time:      10315.97102851
Element set:     924
Inclination:      098.7148 deg
RA of node:       321.9572 deg
Eccentricity:    0.0010435
Arg of perigee:   107.2263 deg
Mean anomaly:     253.0056 deg
Mean motion:   14.20533601 rev/day
Decay rate:        8.4e-07 rev/day^2
Epoch rev:           38202
Checksum:              283

Satellite: AO-51
Catalog number: 28375
Epoch time:      10315.45536877
Element set:     821
Inclination:      098.0745 deg
RA of node:       300.6706 deg
Eccentricity:    0.0084890
Arg of perigee:   010.9685 deg
Mean anomaly:     349.3329 deg
Mean motion:   14.40708753 rev/day
Decay rate:        5.9e-07 rev/day^2
Epoch rev:           33471
Checksum:              325

Satellite: GENESAT1
Catalog number: 29655
Epoch time:      10216.61700559
Element set:     226
Inclination:      040.0059 deg
RA of node:       067.3006 deg
Eccentricity:    0.0005079
Arg of perigee:   297.8744 deg
Mean anomaly:     064.7087 deg
Mean motion:   16.44862838 rev/day
Decay rate:  1.0637092e-01 rev/day^2
Epoch rev:           20777
Checksum:              320

Satellite: CP3
Catalog number: 31129
Epoch time:      10316.06954641
Element set:     721
Inclination:      097.9247 deg
RA of node:       347.6099 deg
Eccentricity:    0.0103229
Arg of perigee:   134.6738 deg
Mean anomaly:     226.3000 deg
Mean motion:   14.52332816 rev/day
Decay rate:       3.84e-06 rev/day^2
Epoch rev:           18932
Checksum:              295

Satellite: CO-65
Catalog number: 32785
Epoch time:      10314.30157455
Element set:    0833
Inclination:      097.8806 deg
RA of node:       017.0753 deg
Eccentricity:    0.0015058
Arg of perigee:   165.3430 deg
Mean anomaly:     194.8204 deg
Mean motion:   14.81759199 rev/day
Decay rate:       5.72e-06 rev/day^2
Epoch rev:           13712
Checksum:              311

Satellite: KKS-1
Catalog number: 33493
Epoch time:      10316.00575199
Element set:      29
Inclination:      098.1022 deg
RA of node:       076.9175 deg
Eccentricity:    0.0020409
Arg of perigee:   026.6190 deg
Mean anomaly:     333.6061 deg
Mean motion:   14.81189027 rev/day
Decay rate:       6.63e-06 rev/day^2
Epoch rev:            9736
Checksum:              290

Satellite: SOHLA-1
Catalog number: 33496
Epoch time:      10315.37292242
Element set:     252
Inclination:      098.0686 deg
RA of node:       062.6285 deg
Eccentricity:    0.0007673
Arg of perigee:   093.6322 deg
Mean anomaly:     266.5756 deg
Mean motion:   14.69531518 rev/day
Decay rate:       1.64e-06 rev/day^2
Epoch rev:            9649
Checksum:              319

Satellite: TISAT-1
Catalog number: 36799
Epoch time:      10316.03277680
Element set:     303
Inclination:      098.1318 deg
RA of node:       016.8724 deg
Eccentricity:    0.0014248
Arg of perigee:   257.6872 deg
Mean anomaly:     102.2733 deg
Mean motion:   14.80224668 rev/day
Decay rate:       4.73e-06 rev/day^2
Epoch rev:            1818
Checksum:              300

Satellite: STUDSAT
Catalog number: 36801
Epoch time:      10316.21138011
Element set:      90
Inclination:      098.1348 deg
RA of node:       016.9504 deg
Eccentricity:    0.0013052
Arg of perigee:   246.8263 deg
Mean anomaly:     113.1575 deg
Mean motion:   14.79785910 rev/day
Decay rate:      1.273e-05 rev/day^2
Epoch rev:            1820
Checksum:              261

/EX
SB KEPS @ AMSAT  $ORB10316.W
Orbital Elements  10316.WEATHER

HR AMSAT ORBITAL ELEMENTS FOR WEATHER SATELLITES
FROM WA5QGD FORT WORTH,TX November 12, 2010
BID: ORB10316.W
TO ALL RADIO AMATEURS BT

Satellite: NOAA-10
Catalog number: 16969
Epoch time:      10314.72381942
Element set:    0270
Inclination:      098.6429 deg
RA of node:       342.2236 deg
Eccentricity:    0.0012641
Arg of perigee:   140.6252 deg
Mean anomaly:     219.5816 deg
Mean motion:   14.27432792 rev/day
Decay rate:       -8.5e-07 rev/day^2
Epoch rev:           25648
Checksum:              303

Satellite: NOAA-11
Catalog number: 19531
Epoch time:      10314.68953467
Element set:    0278
Inclination:      098.7655 deg
RA of node:       041.1900 deg
Eccentricity:    0.0012307
Arg of perigee:   089.2168 deg
Mean anomaly:     271.0435 deg
Mean motion:   14.14940866 rev/day
Decay rate:      -1.43e-06 rev/day^2
Epoch rev:           14185
Checksum:              300

Satellite: NOAA-12
Catalog number: 21263
Epoch time:      10314.75297392
Element set:    0772
Inclination:      098.7620 deg
RA of node:       327.8767 deg
Eccentricity:    0.0013318
Arg of perigee:   100.0901 deg
Mean anomaly:     260.1771 deg
Mean motion:   14.25665885 rev/day
Decay rate:        7.4e-07 rev/day^2
Epoch rev:           01328
Checksum:              295

